Burlington, WA

4:53 PM PDT on April 25, 2017 (GMT -0700)
Skagit Regional

Weather History for KBVS - January, 2013

Change the Weather History Date:

Thursday, January 24, 2013

  Actual Average Record
Temperature  
Mean Temperature 42 °F -  
Max Temperature 46 °F 44 °F 57 °F (2005)
Min Temperature 37 °F 35 °F 7 °F (1969)
Degree Days  
Heating Degree Days 24    
Moisture  
Dew Point 40 °F    
Average Humidity 92    
Maximum Humidity 100    
Minimum Humidity 66    
Precipitation  
Precipitation 0.05 in - - ()
Sea Level Pressure  
Sea Level Pressure 30.13 in    
Wind  
Wind Speed 5 mph (ESE)    
Max Wind Speed 17 mph    
Max Gust Speed 30 mph    
Visibility 9 miles    
Events      
Averages and records for this station are not official NWS values.
T = Trace of Precipitation, MM = Missing Value Source: NWS Daily Summary

Daily Weather History Graph

Daily Weather History Graph

Search for Another Location

Airport or City:

Trip Planner

Search our weather history database for the weather conditions in past years. The results will help you decide how hot, cold, wet, or windy it might be!

Date:

Astronomy

Jan. 24, 2013 Rise Set
Actual Time 7:47 AM PST 4:56 PM PST
Civil Twilight 7:13 AM PST 5:30 PM PST
Nautical Twilight 6:35 AM PST 6:09 PM PST
Astronomical Twilight 5:58 AM PST 6:46 PM PST
Moon 3:00 PM PST (1/24) 5:52 AM PST (1/24)
Length of Visible Light 10h 17m
Length of Day
9h 08m
Waxing Gibbous, 95% of the Moon is Illuminated
Jan 24
Waxing Gibbous
Jan 26
Full
Feb 3
Last Quarter
Feb 9
New
Feb 17
First Quarter

Hourly Weather History & Observations

Time (PST) Temp. Windchill Dew Point Humidity Pressure Visibility Wind Dir Wind Speed Gust Speed Precip Events Conditions
12:15 AM 39.2 °F 35.0 °F 39.2 °F 100% 30.14 in 8.0 mi South 5.8 mph - 0.00 in   Mostly Cloudy
12:35 AM 39.2 °F 37.0 °F 39.2 °F 100% 30.14 in 8.0 mi WSW 3.5 mph - 0.00 in   Partly Cloudy
12:55 AM 39.2 °F 37.0 °F 39.2 °F 100% 30.15 in 7.0 mi NE 3.5 mph - 0.00 in   Scattered Clouds
1:15 AM 39.2 °F - 39.2 °F 100% 30.16 in 9.0 mi Calm Calm - 0.00 in   Mostly Cloudy
1:35 AM 39.2 °F - 39.2 °F 100% 30.17 in 1.8 mi Calm Calm - 0.00 in   Overcast
1:55 AM 37.4 °F 32.8 °F 37.4 °F 100% 30.17 in 2.5 mi SW 5.8 mph - 0.00 in   Mostly Cloudy
2:15 AM 39.2 °F 35.0 °F 39.2 °F 100% 30.18 in 4.0 mi SW 5.8 mph - 0.00 in   Mostly Cloudy
2:35 AM 37.4 °F - 37.4 °F 100% 30.19 in 8.0 mi Calm Calm - 0.00 in   Clear
2:55 AM 39.2 °F - 39.2 °F 100% 30.19 in 9.0 mi Calm Calm - 0.00 in   Mostly Cloudy
3:15 AM 37.4 °F - 37.4 °F 100% 30.20 in 7.0 mi Calm Calm - 0.00 in   Overcast
3:35 AM 37.4 °F 34.9 °F 37.4 °F 100% 30.20 in 1.0 mi SW 3.5 mph - 0.00 in   Overcast
3:55 AM 37.4 °F - 37.4 °F 100% 30.20 in 8.0 mi Calm Calm - 0.00 in   Overcast
4:15 AM 37.4 °F - 37.4 °F 100% 30.20 in 7.0 mi Calm Calm - 0.00 in   Overcast
4:35 AM 39.2 °F 37.0 °F 39.2 °F 100% 30.20 in 8.0 mi East 3.5 mph - 0.00 in   Overcast
4:55 AM 39.2 °F - 39.2 °F 100% 30.19 in 10.0 mi Calm Calm - 0.00 in   Overcast
5:15 AM 39.2 °F - 39.2 °F 100% 30.20 in 8.0 mi Calm Calm - 0.00 in   Overcast
5:35 AM 37.4 °F - 37.4 °F 100% 30.21 in 3.0 mi Calm Calm - 0.00 in   Overcast
5:55 AM 37.4 °F - 37.4 °F 100% 30.22 in 8.0 mi Calm Calm - 0.00 in   Overcast
6:15 AM 39.2 °F 37.0 °F 39.2 °F 100% 30.21 in 9.0 mi ESE 3.5 mph - 0.00 in   Overcast
6:35 AM 39.2 °F 37.0 °F 39.2 °F 100% 30.22 in 10.0 mi SE 3.5 mph - 0.00 in   Overcast
6:55 AM 39.2 °F 35.9 °F 39.2 °F 100% 30.21 in 9.0 mi ESE 4.6 mph - 0.00 in   Overcast
7:15 AM 39.2 °F 35.9 °F 39.2 °F 100% 30.21 in 10.0 mi ESE 4.6 mph - 0.00 in   Overcast
7:35 AM 39.2 °F 35.9 °F 39.2 °F 100% 30.20 in 10.0 mi ESE 4.6 mph - 0.00 in   Overcast
7:55 AM 39.2 °F 35.9 °F 39.2 °F 100% 30.20 in 10.0 mi ESE 4.6 mph - 0.00 in   Overcast
8:15 AM 37.4 °F 32.8 °F 37.4 °F 100% 30.19 in 10.0 mi East 5.8 mph - 0.00 in   Scattered Clouds
8:35 AM 39.2 °F 37.0 °F 39.2 °F 100% 30.18 in 10.0 mi East 3.5 mph - 0.00 in   Clear
8:55 AM 39.2 °F 35.0 °F 39.2 °F 100% 30.18 in 10.0 mi East 5.8 mph - 0.00 in   Clear
9:15 AM 39.2 °F 35.0 °F 39.2 °F 100% 30.18 in 10.0 mi East 5.8 mph - 0.00 in   Clear
9:35 AM 41.0 °F 36.4 °F 41.0 °F 100% 30.19 in 10.0 mi East 6.9 mph - 0.00 in   Clear
9:55 AM 42.8 °F 37.5 °F 41.0 °F 93% 30.19 in 10.0 mi East 9.2 mph - 0.00 in   Clear
10:15 AM 44.6 °F 39.7 °F 41.0 °F 87% 30.18 in 10.0 mi ESE 9.2 mph - 0.00 in   Clear
10:35 AM 44.6 °F 39.7 °F 41.0 °F 87% 30.18 in 10.0 mi ESE 9.2 mph - 0.00 in   Clear
10:55 AM 44.6 °F 41.4 °F 39.2 °F 81% 30.18 in 10.0 mi SE 5.8 mph - 0.00 in   Clear
11:15 AM 44.6 °F 40.2 °F 39.2 °F 81% 30.18 in 10.0 mi ESE 8.1 mph - 0.00 in   Clear
11:35 AM 44.6 °F 40.2 °F 39.2 °F 81% 30.17 in 10.0 mi ESE 8.1 mph - 0.00 in   Partly Cloudy
11:55 AM 44.6 °F 40.2 °F 39.2 °F 81% 30.16 in 10.0 mi ESE 8.1 mph - 0.00 in   Partly Cloudy
12:15 PM 44.6 °F 40.2 °F 42.8 °F 93% 30.15 in 10.0 mi East 8.1 mph - 0.00 in   Scattered Clouds
12:35 PM 44.6 °F 39.2 °F 42.8 °F 93% 30.12 in 10.0 mi East 10.4 mph - 0.00 in   Partly Cloudy
12:55 PM 46.4 °F 41.9 °F 39.2 °F 76% 30.11 in 10.0 mi ESE 9.2 mph - 0.00 in   Partly Cloudy
1:15 PM 46.4 °F 42.9 °F 37.4 °F 71% 30.11 in 10.0 mi SE 6.9 mph - 0.00 in   Partly Cloudy
1:35 PM 46.4 °F 43.5 °F 37.4 °F 71% 30.11 in 10.0 mi SE 5.8 mph - 0.00 in   Partly Cloudy
1:55 PM 46.4 °F 42.9 °F 35.6 °F 66% 30.09 in 10.0 mi SSE 6.9 mph - 0.00 in   Partly Cloudy
2:15 PM 44.6 °F 41.4 °F 35.6 °F 71% 30.09 in 10.0 mi SE 5.8 mph - 0.00 in   Clear
2:35 PM 44.6 °F - 37.4 °F 76% 30.08 in 10.0 mi Calm Calm - 0.00 in   Clear
2:55 PM 44.6 °F 41.4 °F 37.4 °F 76% 30.08 in 10.0 mi SE 5.8 mph - 0.00 in   Clear
3:15 PM 44.6 °F 42.2 °F 39.2 °F 81% 30.10 in 10.0 mi SW 4.6 mph - 0.00 in   Partly Cloudy
3:35 PM 44.6 °F - 39.2 °F 81% 30.09 in 10.0 mi Calm Calm - 0.00 in   Scattered Clouds
3:55 PM 42.8 °F - 41.0 °F 93% 30.09 in 10.0 mi Calm Calm - 0.00 in   Scattered Clouds
4:15 PM 44.6 °F 41.4 °F 39.2 °F 81% 30.07 in 10.0 mi ENE 5.8 mph - 0.00 in   Mostly Cloudy
4:35 PM 44.6 °F 39.7 °F 39.2 °F 81% 30.07 in 10.0 mi ENE 9.2 mph - 0.00 in   Mostly Cloudy
4:55 PM 44.6 °F 38.8 °F 39.2 °F 81% 30.09 in 9.0 mi East 11.5 mph 19.6 mph 0.00 in   Mostly Cloudy
5:15 PM 46.4 °F 39.8 °F 37.4 °F 71% 30.10 in 5.0 mi SSE 16.1 mph 29.9 mph 0.00 in   Overcast
5:35 PM 42.8 °F 37.0 °F 39.2 °F 87% 30.09 in 6.0 mi SSE 10.4 mph 17.3 mph 0.01 in   Mostly Cloudy
5:55 PM 42.8 °F 36.2 °F 41.0 °F 93% 30.10 in 5.0 mi SE 12.7 mph 17.3 mph 0.03 in   Overcast
6:15 PM 42.8 °F 36.2 °F 42.8 °F 100% 30.08 in 10.0 mi ESE 12.7 mph 19.6 mph 0.00 in   Overcast
6:35 PM 42.8 °F 35.8 °F 42.8 °F 100% 30.08 in 10.0 mi ESE 13.8 mph 20.7 mph 0.01 in   Overcast
7:15 PM 41.0 °F 33.1 °F 41.0 °F 100% 30.07 in 10.0 mi ESE 15.0 mph - 0.00 in   Overcast
7:35 PM 41.0 °F 33.1 °F 41.0 °F 100% 30.06 in 10.0 mi ESE 15.0 mph 23.0 mph 0.01 in   Overcast
7:55 PM 41.0 °F 32.5 °F 41.0 °F 100% 30.06 in 10.0 mi ESE 17.3 mph 25.3 mph 0.01 in   Overcast
8:15 PM 42.8 °F 35.1 °F 41.0 °F 93% 30.06 in 10.0 mi ESE 16.1 mph 21.9 mph 0.00 in   Overcast
8:35 PM 42.8 °F 35.1 °F 41.0 °F 93% 30.05 in 10.0 mi ESE 16.1 mph 24.2 mph 0.00 in   Overcast
8:55 PM 42.8 °F 35.4 °F 41.0 °F 93% 30.05 in 10.0 mi ESE 15.0 mph 19.6 mph 0.00 in   Overcast
9:15 PM 42.8 °F 35.8 °F 42.8 °F 100% 30.05 in 10.0 mi ESE 13.8 mph 19.6 mph 0.00 in   Overcast
9:35 PM 42.8 °F 35.8 °F 42.8 °F 100% 30.05 in 10.0 mi ESE 13.8 mph - 0.00 in   Overcast
9:55 PM 44.6 °F 37.8 °F 42.8 °F 93% 30.04 in 10.0 mi ESE 15.0 mph 19.6 mph 0.00 in   Overcast
10:15 PM 44.6 °F 37.8 °F 42.8 °F 93% 30.03 in 10.0 mi ESE 15.0 mph - 0.00 in   Overcast
10:35 PM 44.6 °F 39.2 °F 42.8 °F 93% 30.03 in 10.0 mi ESE 10.4 mph - 0.00 in   Overcast
10:55 PM 46.4 °F 41.1 °F 42.8 °F 87% 30.03 in 10.0 mi ESE 11.5 mph - 0.00 in   Overcast
11:15 PM 46.4 °F 41.9 °F 42.8 °F 87% 30.03 in 10.0 mi SE 9.2 mph 18.4 mph 0.00 in   Overcast
11:55 PM 46.4 °F 41.1 °F 44.6 °F 93% 30.04 in 10.0 mi SSE 11.5 mph 21.9 mph 0.00 in   Overcast